Home > Weather > Schwerin > Past weeks

Flag for Germany Past Weather in Schwerin, Mecklenburg-Western Pomerania, Germany — Yesterday and Last 2 Weeks

Now
82 °F

Sunny.


Feels Like: 83 °F
Forecast: 61 / 82 °F
Wind: 3 mph from North

Location: Mecklenburg-Vorpommern - Parchim

Current Time: Jul 24, 2016 at 2:55:23 PM

Latest Report: Jul 24, 2016 at 2:20 PM


Visibility: 10 mi

Pressure: 30.09 "Hg

Humidity: 48%

Dew Point: 61 °F

Location of SchwerinLocation

Past Weather in Schwerin — Graph

°F

Schwerin Temperature Yesterday

Maximum temperature yesterday: 82 °F (at 1:50 PM)
Minimum temperature yesterday: 57 °F (at 6:20 AM)
Average temperature yesterday: 76 °F

High & Low Weather Summary for the Past Weeks

 TemperatureHumidityPressure
High86 °F (Jul 21, 5:20 PM)100% (Jul 13, 6:20 AM)30.21 "Hg (Jul 13, 6:20 AM)
Low48 °F (Jul 16, 6:20 AM)25% (Jul 22, 3:20 PM)29.71 "Hg (Jul 11, 6:20 AM)
Average69 °F66%30.01 "Hg
* Reported Jul 9 1:20 PM — Jul 24 1:20 PM, Schwerin, Weather by CustomWeather, © 2016

Note: Actual official high and low records may vary slightly from our data, if they occured in-between our weather recording intervals... More about our weather records

Advertising

Schwerin Weather History for the Previous 24 Hours

Scroll right to see more
 ConditionsComfort  
Time TempWeatherWind HumidityBarometerVisibility
1:20 PM
Sun, Jul 24
79 °FPassing clouds.6 mph51%30.09 "HgN/A
12:50 PM79 °FSunny.7 mph54%30.09 "Hg10 mi
12:20 PM75 °FPassing clouds.6 mph61%30.09 "HgN/A
11:50 AM75 °FPartly sunny.7 mph61%30.12 "HgN/A
11:20 AM73 °FPartly sunny.5 mph65%30.12 "HgN/A
10:50 AM73 °FPartly sunny.6 mph65%30.12 "HgN/A
10:20 AM73 °FPartly sunny.8 mph69%30.12 "HgN/A
9:50 AM72 °FPartly sunny.8 mph69%30.12 "HgN/A
9:20 AM70 °FPassing clouds.9 mph78%30.12 "HgN/A
8:50 AM70 °FPassing clouds.7 mph73%30.12 "HgN/A
8:20 AM68 °FSunny.9 mph78%30.12 "Hg10 mi
7:50 AM68 °FPassing clouds.7 mph78%30.12 "HgN/A
7:20 AM66 °FSunny.7 mph83%30.12 "Hg10 mi
6:50 AM66 °FSunny.7 mph83%30.12 "Hg10 mi
6:20 AM64 °FSunny.7 mph88%30.12 "Hg10 mi
6:50 PM
Sat, Jul 23
79 °FSunny.10 mph51%30.07 "Hg10 mi
6:20 PM81 °FSunny.10 mph48%30.07 "Hg10 mi
5:50 PM81 °FPassing clouds.8 mph48%30.07 "HgN/A
5:20 PM82 °FPassing clouds.8 mph45%30.07 "HgN/A
4:50 PM81 °FSunny.9 mph45%30.07 "Hg10 mi
4:20 PM81 °FPassing clouds.7 mph48%30.07 "HgN/A
3:50 PM81 °FPassing clouds.7 mph45%30.09 "HgN/A
3:20 PM82 °FPassing clouds.8 mph42%30.09 "HgN/A
2:50 PM81 °FPassing clouds.8 mph45%30.09 "HgN/A
2:20 PM81 °FPassing clouds.8 mph45%30.09 "HgN/A
Weather by CustomWeather, © 2016

See weather overviewHow to use our weather pages